Terminal Aerodrome Forecast
Issued by NWS

Home | Current Version | Previous Version | Text Only | Print | Product List | Glossary On
Versions: 1 2 3 4 5 6 7 8 9 10 11 12 13 14
000
FTUS43 KBIS 281255 AAA
TAFJMS
TAF AMD
KJMS 281255Z 2813/2912 16005KT P6SM SCT250
      TEMPO 2813/2814 6SM BR
     FM281500 22008KT P6SM SCT250
     FM281800 22013KT P6SM SCT250
     FM290200 17006KT P6SM SKC=

USA.gov is the U.S. government's official web portal to all federal, state and local government web resources and services.